User: anonymous   Login
Location: Fort Wayne
(41.1310°N, 85.1290°W)
Time: 20:14:45
(UTC-04:00)
Language:

Cosmos 1980 - Orbit

View from above orbital plane
View from above orbital plane
View from above satellite
View from above satellite

Ground track
Ground track

The orbit data is extracted from the following two-line orbital elements,

1 19649U 88102A   16269.39099483  .00000074  00000-0  63347-4 0  9995
2 19649  70.9979 261.5991 0005934 333.5567  26.5252 14.14646819437121
Epoch (UTC): 25 September 2016 09:23:01
Eccentricity: 0.0005934
inclination: 70.9979°
perigee height: 839 km
apogee height: 848 km
right ascension of ascending node: 261.5991°
argument of perigee: 333.5567°
revolutions per day: 14.14646819
mean anomaly at epoch: 26.5252°
orbit number at epoch: 43712

The dashed part of the orbit path shows where the satellite is in the earth's shadow,  

DLR